Погода в Шаркане

Россия / Удмуртская Республика     57°18′04″N   53°52′16″E
темп.,
°C
ветер,
м/с
пор.,
м/с
влажн.,
%
обл.,
%
осадки,
мм/ч
давл.,
гПа
погр.,
м
19 сентября, вс
вс1901:00+1сз61382100 0.0 1017524
04:000сз61287100 0.0 1019427
07:000сз6129121 0.0 1019438
10:00+5ссз685990 0.0 10201279
13:00+5сз6757100 0.0 10211392
16:00+5сз5857100 0.0 10231431
19:00+4ссз5858100 0.0 1023692
22:00+3сз487091 0.0 1024393
20 сентября, пн
пн2001:00−1сз38916 0.0 1025152
04:00−2сз33916 0.0 102658
07:000сз237871 0.0 102773
10:00+5с346144 0.0 1028920
13:00+8с345380 0.0 10281320
16:00+7св4456100 0.0 10281115
19:00+5св4765100 0.0 1029419
22:00+4всв3672100 0.0 1030391
21 сентября, вт
вт2101:00+3всв3577100 0.0 1031260
04:00+3всв2580100 0.0 1030212
07:00+4всв367589 0.0 1030276
10:00+7в445788 0.0 10291069
13:00+9вюв345198 0.0 10281162
16:00+9вюв3350100 0.0 10261116
19:00+6всв2265100 0.0 102614
22:00+4всв357697 0.0 102685
22 сентября, ср
ср2201:00+3всв368091 0.0 102694
04:00+1всв37877 0.0 1025113
07:00+1всв37860 0.0 1026143
10:00+8в56595 0.0 1025515
13:00+11в5548100 0.0 1024873
16:00+11в4548100 0.0 1024883
19:00+7в4764100 0.0 1025112
22:00+6в4970100 0.0 1025150
23 сентября, чт
чт2301:00+5в487261 0.0 1026160
04:00+6в496799 0.0 1026212
07:00+4в387432 0.0 1027150
10:00+11юв57547 0.0 1027408
13:00+15юв564558 0.0 1026901
16:00+12юв396095 0.0 1026269
19:00+11юв41059100 0.0 1026296
22:00+9ююв2762100 0.0 1027158